Time,TemperatureF,DewpointF,PressureIn,WindDirection,WindDirectionDegrees,WindSpeedMPH,WindSpeedGustMPH,Humidity,HourlyPrecipIn,Conditions,Clouds,dailyrainin,SoftwareType,DateUTC
2013-07-05 00:01:00,69.0,37.0,26.74,SSE,157,5.0,7.0,31,0.00,,,0.00,Rainwise IP-100,2013-07-05 06:01:00,
2013-07-05 00:06:00,69.0,38.0,26.74,SSE,157,4.0,8.0,32,0.00,,,0.00,Rainwise IP-100,2013-07-05 06:06:00,
2013-07-05 00:11:00,69.0,38.0,26.74,SE,135,3.0,6.0,32,0.00,,,0.00,Rainwise IP-100,2013-07-05 06:11:00,
2013-07-05 00:16:00,69.0,37.0,26.74,SW,225,3.0,7.0,31,0.00,,,0.00,Rainwise IP-100,2013-07-05 06:16:00,
2013-07-05 00:19:00,69.0,36.0,26.75,SSW,202,1.0,6.0,30,0.00,,,0.00,Rainwise IP-100,2013-07-05 06:19:00,
2013-07-05 00:24:00,69.0,37.0,26.75,WSW,247,1.0,7.0,31,0.00,,,0.00,Rainwise IP-100,2013-07-05 06:24:00,
2013-07-05 00:29:00,69.0,37.0,26.75,SSW,202,1.0,3.0,31,0.00,,,0.00,Rainwise IP-100,2013-07-05 06:29:00,
2013-07-05 00:34:00,68.0,37.0,26.75,SSW,202,1.0,5.0,32,0.00,,,0.00,Rainwise IP-100,2013-07-05 06:34:00,
2013-07-05 00:39:00,68.0,37.0,26.76,SSW,202,0.0,4.0,32,0.00,,,0.00,Rainwise IP-100,2013-07-05 06:39:00,
2013-07-05 00:44:00,68.0,38.0,26.76,NNW,337,3.0,4.0,33,0.00,,,0.00,Rainwise IP-100,2013-07-05 06:44:00,
2013-07-05 00:49:00,68.0,38.0,26.75,NW,315,2.0,5.0,34,0.00,,,0.00,Rainwise IP-100,2013-07-05 06:49:00,
2013-07-05 00:54:00,67.0,38.0,26.75,NW,315,0.0,4.0,35,0.00,,,0.00,Rainwise IP-100,2013-07-05 06:54:00,
2013-07-05 00:59:00,67.0,38.0,26.76,North,360,0.0,6.0,35,0.00,,,0.00,Rainwise IP-100,2013-07-05 06:59:00,
2013-07-05 01:04:00,66.0,38.0,26.76,NNW,337,0.0,3.0,36,0.00,,,0.00,Rainwise IP-100,2013-07-05 07:04:00,
2013-07-05 01:09:00,66.0,38.0,26.77,NNW,337,6.0,6.0,36,0.00,,,0.00,Rainwise IP-100,2013-07-05 07:09:00,
2013-07-05 01:14:00,65.0,38.0,26.77,West,270,0.0,6.0,37,0.00,,,0.00,Rainwise IP-100,2013-07-05 07:14:00,
2013-07-05 01:19:00,65.0,38.0,26.78,West,270,0.0,2.0,37,0.00,,,0.00,Rainwise IP-100,2013-07-05 07:19:00,
2013-07-05 01:24:00,65.0,39.0,26.78,West,270,0.0,1.0,38,0.00,,,0.00,Rainwise IP-100,2013-07-05 07:24:00,
2013-07-05 01:29:00,64.0,38.0,26.79,West,270,0.0,0.0,39,0.00,,,0.00,Rainwise IP-100,2013-07-05 07:29:00,
2013-07-05 01:34:00,64.0,39.0,26.79,West,270,0.0,0.0,40,0.00,,,0.00,Rainwise IP-100,2013-07-05 07:34:00,
2013-07-05 01:39:00,63.0,39.0,26.79,West,270,0.0,0.0,41,0.00,,,0.00,Rainwise IP-100,2013-07-05 07:39:00,
2013-07-05 01:44:00,62.0,39.0,26.79,West,270,0.0,0.0,43,0.00,,,0.00,Rainwise IP-100,2013-07-05 07:44:00,
2013-07-05 01:49:00,62.0,39.0,26.79,West,270,0.0,0.0,43,0.00,,,0.00,Rainwise IP-100,2013-07-05 07:49:00,
2013-07-05 01:54:00,62.0,40.0,26.79,West,270,0.0,0.0,44,0.00,,,0.00,Rainwise IP-100,2013-07-05 07:54:00,
2013-07-05 01:59:00,62.0,40.0,26.79,West,270,0.0,0.0,45,0.00,,,0.00,Rainwise IP-100,2013-07-05 07:59:00,
2013-07-05 02:04:00,62.0,40.0,26.79,SE,135,0.0,5.0,45,0.00,,,0.00,Rainwise IP-100,2013-07-05 08:04:00,
2013-07-05 02:09:00,62.0,40.0,26.79,SE,135,0.0,0.0,44,0.00,,,0.00,Rainwise IP-100,2013-07-05 08:09:00,
2013-07-05 02:14:00,61.0,40.0,26.79,SE,135,0.0,3.0,46,0.00,,,0.00,Rainwise IP-100,2013-07-05 08:14:00,
2013-07-05 02:19:00,61.0,40.0,26.80,ESE,112,2.0,2.0,47,0.00,,,0.00,Rainwise IP-100,2013-07-05 08:19:00,
2013-07-05 02:24:00,61.0,40.0,26.80,ESE,112,0.0,3.0,47,0.00,,,0.00,Rainwise IP-100,2013-07-05 08:24:00,
2013-07-05 02:29:00,61.0,40.0,26.80,ESE,112,0.0,1.0,47,0.00,,,0.00,Rainwise IP-100,2013-07-05 08:29:00,
2013-07-05 02:34:00,60.0,40.0,26.80,ESE,112,0.0,0.0,48,0.00,,,0.00,Rainwise IP-100,2013-07-05 08:34:00,
2013-07-05 02:39:00,60.0,40.0,26.81,ESE,112,1.0,3.0,49,0.00,,,0.00,Rainwise IP-100,2013-07-05 08:39:00,
2013-07-05 02:44:00,59.0,39.0,26.81,ESE,112,0.0,3.0,48,0.00,,,0.00,Rainwise IP-100,2013-07-05 08:44:00,
2013-07-05 02:49:00,59.0,39.0,26.81,ESE,112,0.0,0.0,48,0.00,,,0.00,Rainwise IP-100,2013-07-05 08:49:00,
2013-07-05 02:53:00,59.0,40.0,26.81,ESE,112,0.0,1.0,49,0.00,,,0.00,Rainwise IP-100,2013-07-05 08:53:00,
2013-07-05 02:58:00,59.0,41.0,26.81,ESE,112,0.0,0.0,51,0.00,,,0.00,Rainwise IP-100,2013-07-05 08:58:00,
2013-07-05 03:01:00,58.0,40.0,26.81,ESE,112,0.0,0.0,51,0.00,,,0.00,Rainwise IP-100,2013-07-05 09:01:00,
2013-07-05 03:06:00,58.0,41.0,26.81,ESE,112,0.0,0.0,53,0.00,,,0.00,Rainwise IP-100,2013-07-05 09:06:00,
2013-07-05 03:11:00,58.0,41.0,26.82,ESE,112,0.0,0.0,53,0.00,,,0.00,Rainwise IP-100,2013-07-05 09:11:00,
2013-07-05 03:16:00,58.0,41.0,26.82,ESE,112,0.0,0.0,53,0.00,,,0.00,Rainwise IP-100,2013-07-05 09:16:00,
2013-07-05 03:21:00,57.0,40.0,26.81,ESE,112,0.0,0.0,54,0.00,,,0.00,Rainwise IP-100,2013-07-05 09:21:00,
2013-07-05 03:26:00,57.0,40.0,26.81,ESE,112,0.0,0.0,54,0.00,,,0.00,Rainwise IP-100,2013-07-05 09:26:00,
2013-07-05 03:31:00,57.0,41.0,26.82,ESE,112,0.0,0.0,56,0.00,,,0.00,Rainwise IP-100,2013-07-05 09:31:00,
2013-07-05 03:36:00,57.0,41.0,26.82,ESE,112,0.0,3.0,55,0.00,,,0.00,Rainwise IP-100,2013-07-05 09:36:00,
2013-07-05 03:41:00,57.0,41.0,26.82,ESE,112,0.0,1.0,56,0.00,,,0.00,Rainwise IP-100,2013-07-05 09:41:00,
2013-07-05 03:46:00,57.0,41.0,26.82,ESE,112,0.0,1.0,56,0.00,,,0.00,Rainwise IP-100,2013-07-05 09:46:00,
2013-07-05 03:51:00,57.0,41.0,26.82,ESE,112,0.0,0.0,56,0.00,,,0.00,Rainwise IP-100,2013-07-05 09:51:00,
2013-07-05 03:56:00,56.0,41.0,26.82,ESE,112,0.0,0.0,57,0.00,,,0.00,Rainwise IP-100,2013-07-05 09:56:00,
2013-07-05 04:01:00,56.0,40.0,26.81,ESE,112,0.0,2.0,56,0.00,,,0.00,Rainwise IP-100,2013-07-05 10:01:00,
2013-07-05 04:06:00,56.0,40.0,26.81,ESE,112,0.0,0.0,56,0.00,,,0.00,Rainwise IP-100,2013-07-05 10:06:00,
2013-07-05 04:11:00,56.0,40.0,26.82,ESE,112,0.0,0.0,56,0.00,,,0.00,Rainwise IP-100,2013-07-05 10:11:00,
2013-07-05 04:16:00,56.0,41.0,26.82,ESE,112,0.0,2.0,58,0.00,,,0.00,Rainwise IP-100,2013-07-05 10:16:00,
2013-07-05 04:21:00,56.0,41.0,26.82,ESE,112,0.0,1.0,58,0.00,,,0.00,Rainwise IP-100,2013-07-05 10:21:00,
2013-07-05 04:26:00,55.0,41.0,26.82,ESE,112,0.0,0.0,59,0.00,,,0.00,Rainwise IP-100,2013-07-05 10:26:00,
2013-07-05 04:31:00,55.0,41.0,26.82,ESE,112,0.0,0.0,59,0.00,,,0.00,Rainwise IP-100,2013-07-05 10:31:00,
2013-07-05 04:36:00,55.0,42.0,26.82,ESE,112,0.0,0.0,61,0.00,,,0.00,Rainwise IP-100,2013-07-05 10:36:00,
2013-07-05 04:41:00,55.0,43.0,26.83,ESE,112,1.0,2.0,63,0.00,,,0.00,Rainwise IP-100,2013-07-05 10:41:00,
2013-07-05 04:46:00,55.0,42.0,26.83,ESE,112,0.0,2.0,61,0.00,,,0.00,Rainwise IP-100,2013-07-05 10:46:00,
2013-07-05 04:51:00,54.0,41.0,26.83,ESE,112,0.0,0.0,61,0.00,,,0.00,Rainwise IP-100,2013-07-05 10:51:00,
2013-07-05 04:56:00,54.0,41.0,26.83,ESE,112,0.0,0.0,63,0.00,,,0.00,Rainwise IP-100,2013-07-05 10:56:00,
2013-07-05 05:01:00,54.0,42.0,26.83,ESE,112,0.0,0.0,65,0.00,,,0.00,Rainwise IP-100,2013-07-05 11:01:00,
2013-07-05 05:06:00,53.0,41.0,26.83,ESE,112,0.0,0.0,65,0.00,,,0.00,Rainwise IP-100,2013-07-05 11:06:00,
2013-07-05 05:11:00,54.0,43.0,26.83,ESE,112,0.0,0.0,66,0.00,,,0.00,Rainwise IP-100,2013-07-05 11:11:00,
2013-07-05 05:16:00,54.0,42.0,26.83,ESE,112,0.0,0.0,65,0.00,,,0.00,Rainwise IP-100,2013-07-05 11:16:00,
2013-07-05 05:21:00,54.0,42.0,26.83,ESE,112,0.0,0.0,65,0.00,,,0.00,Rainwise IP-100,2013-07-05 11:21:00,
2013-07-05 05:26:00,53.0,41.0,26.83,ESE,112,0.0,0.0,65,0.00,,,0.00,Rainwise IP-100,2013-07-05 11:26:00,
2013-07-05 05:31:00,53.0,41.0,26.83,ESE,112,0.0,0.0,66,0.00,,,0.00,Rainwise IP-100,2013-07-05 11:31:00,
2013-07-05 05:36:00,53.0,41.0,26.83,ESE,112,0.0,0.0,66,0.00,,,0.00,Rainwise IP-100,2013-07-05 11:36:00,
2013-07-05 05:41:00,53.0,42.0,26.84,ESE,112,0.0,0.0,68,0.00,,,0.00,Rainwise IP-100,2013-07-05 11:41:00,
2013-07-05 05:46:00,54.0,43.0,26.84,SSE,157,3.0,4.0,66,0.00,,,0.00,Rainwise IP-100,2013-07-05 11:46:00,
2013-07-05 05:51:00,54.0,42.0,26.84,ESE,112,0.0,3.0,64,0.00,,,0.00,Rainwise IP-100,2013-07-05 11:51:00,
2013-07-05 05:56:00,54.0,42.0,26.84,ESE,112,1.0,3.0,64,0.00,,,0.00,Rainwise IP-100,2013-07-05 11:56:00,
2013-07-05 06:01:00,54.0,41.0,26.83,ESE,112,0.0,2.0,63,0.00,,,0.00,Rainwise IP-100,2013-07-05 12:01:00,
2013-07-05 06:06:00,54.0,42.0,26.83,ESE,112,0.0,0.0,64,0.00,,,0.00,Rainwise IP-100,2013-07-05 12:06:00,
2013-07-05 06:11:00,54.0,42.0,26.84,ESE,112,0.0,1.0,65,0.00,,,0.00,Rainwise IP-100,2013-07-05 12:11:00,
2013-07-05 06:16:00,54.0,43.0,26.84,ESE,112,0.0,0.0,66,0.00,,,0.00,Rainwise IP-100,2013-07-05 12:16:00,
2013-07-05 06:21:00,53.0,41.0,26.84,ESE,112,0.0,0.0,66,0.00,,,0.00,Rainwise IP-100,2013-07-05 12:21:00,
2013-07-05 06:26:00,53.0,42.0,26.84,ESE,112,1.0,1.0,67,0.00,,,0.00,Rainwise IP-100,2013-07-05 12:26:00,
2013-07-05 06:31:00,53.0,42.0,26.85,ESE,112,0.0,1.0,68,0.00,,,0.00,Rainwise IP-100,2013-07-05 12:31:00,
2013-07-05 06:36:00,54.0,43.0,26.85,ESE,112,0.0,0.0,67,0.00,,,0.00,Rainwise IP-100,2013-07-05 12:36:00,
2013-07-05 06:41:00,56.0,44.0,26.83,ESE,112,0.0,0.0,64,0.00,,,0.00,Rainwise IP-100,2013-07-05 12:41:00,
2013-07-05 06:46:00,57.0,44.0,26.83,ESE,112,0.0,1.0,61,0.00,,,0.00,Rainwise IP-100,2013-07-05 12:46:00,
2013-07-05 06:51:00,58.0,44.0,26.82,ESE,112,0.0,0.0,59,0.00,,,0.00,Rainwise IP-100,2013-07-05 12:51:00,
2013-07-05 06:56:00,59.0,43.0,26.82,ESE,112,1.0,3.0,56,0.00,,,0.00,Rainwise IP-100,2013-07-05 12:56:00,
2013-07-05 07:01:00,59.0,43.0,26.82,ESE,112,0.0,4.0,55,0.00,,,0.00,Rainwise IP-100,2013-07-05 13:01:00,
2013-07-05 07:06:00,60.0,44.0,26.82,ESE,112,0.0,1.0,55,0.00,,,0.00,Rainwise IP-100,2013-07-05 13:06:00,
2013-07-05 07:11:00,61.0,44.0,26.81,ESE,112,0.0,0.0,54,0.00,,,0.00,Rainwise IP-100,2013-07-05 13:11:00,
2013-07-05 07:16:00,62.0,43.0,26.81,ESE,112,0.0,4.0,50,0.00,,,0.00,Rainwise IP-100,2013-07-05 13:16:00,
2013-07-05 07:21:00,62.0,43.0,26.80,ENE,67,0.0,4.0,50,0.00,,,0.00,Rainwise IP-100,2013-07-05 13:21:00,
2013-07-05 07:26:00,62.0,43.0,26.80,ESE,112,1.0,4.0,50,0.00,,,0.00,Rainwise IP-100,2013-07-05 13:26:00,
2013-07-05 07:31:00,63.0,43.0,26.80,SE,135,2.0,5.0,49,0.00,,,0.00,Rainwise IP-100,2013-07-05 13:31:00,
2013-07-05 07:36:00,63.0,43.0,26.80,ENE,67,3.0,5.0,49,0.00,,,0.00,Rainwise IP-100,2013-07-05 13:36:00,
2013-07-05 07:41:00,63.0,42.0,26.81,ENE,67,2.0,4.0,47,0.00,,,0.00,Rainwise IP-100,2013-07-05 13:41:00,
2013-07-05 07:46:00,64.0,43.0,26.81,ESE,112,1.0,4.0,47,0.00,,,0.00,Rainwise IP-100,2013-07-05 13:46:00,
2013-07-05 07:51:00,64.0,43.0,26.80,ESE,112,1.0,3.0,46,0.00,,,0.00,Rainwise IP-100,2013-07-05 13:51:00,
2013-07-05 07:56:00,64.0,43.0,26.80,SE,135,4.0,6.0,47,0.00,,,0.00,Rainwise IP-100,2013-07-05 13:56:00,
2013-07-05 08:01:00,64.0,43.0,26.81,ENE,67,2.0,5.0,47,0.00,,,0.00,Rainwise IP-100,2013-07-05 14:01:00,
2013-07-05 08:06:00,65.0,43.0,26.81,ESE,112,3.0,4.0,45,0.00,,,0.00,Rainwise IP-100,2013-07-05 14:06:00,
2013-07-05 08:11:00,65.0,44.0,26.81,NE,45,1.0,3.0,46,0.00,,,0.00,Rainwise IP-100,2013-07-05 14:11:00,
2013-07-05 08:16:00,66.0,43.0,26.81,NE,45,3.0,4.0,43,0.00,,,0.00,Rainwise IP-100,2013-07-05 14:16:00,
2013-07-05 08:21:00,67.0,44.0,26.80,WNW,292,1.0,3.0,43,0.00,,,0.00,Rainwise IP-100,2013-07-05 14:21:00,
2013-07-05 08:26:00,67.0,44.0,26.80,North,360,2.0,3.0,43,0.00,,,0.00,Rainwise IP-100,2013-07-05 14:26:00,
2013-07-05 08:31:00,68.0,45.0,26.79,NE,45,0.0,4.0,43,0.00,,,0.00,Rainwise IP-100,2013-07-05 14:31:00,
2013-07-05 08:36:00,68.0,44.0,26.79,SSE,157,4.0,5.0,42,0.00,,,0.00,Rainwise IP-100,2013-07-05 14:36:00,
2013-07-05 08:41:00,68.0,44.0,26.79,North,360,2.0,5.0,42,0.00,,,0.00,Rainwise IP-100,2013-07-05 14:41:00,
2013-07-05 08:46:00,68.0,43.0,26.79,North,360,1.0,5.0,41,0.00,,,0.00,Rainwise IP-100,2013-07-05 14:46:00,
2013-07-05 08:51:00,70.0,44.0,26.80,NW,315,0.0,3.0,39,0.00,,,0.00,Rainwise IP-100,2013-07-05 14:51:00,
2013-07-05 08:56:00,70.0,44.0,26.80,ESE,112,2.0,5.0,39,0.00,,,0.00,Rainwise IP-100,2013-07-05 14:56:00,
2013-07-05 09:01:00,70.0,44.0,26.79,NE,45,2.0,5.0,39,0.00,,,0.00,Rainwise IP-100,2013-07-05 15:01:00,
2013-07-05 09:06:00,70.0,45.0,26.79,NNE,22,2.0,3.0,40,0.00,,,0.00,Rainwise IP-100,2013-07-05 15:06:00,
2013-07-05 09:11:00,70.0,43.0,26.79,ESE,112,2.0,4.0,38,0.00,,,0.00,Rainwise IP-100,2013-07-05 15:11:00,
2013-07-05 09:16:00,71.0,45.0,26.79,WSW,247,0.0,4.0,39,0.00,,,0.00,Rainwise IP-100,2013-07-05 15:16:00,
2013-07-05 09:21:00,72.0,44.0,26.78,SSE,157,2.0,4.0,37,0.00,,,0.00,Rainwise IP-100,2013-07-05 15:21:00,
2013-07-05 09:26:00,72.0,44.0,26.78,WNW,292,0.0,4.0,37,0.00,,,0.00,Rainwise IP-100,2013-07-05 15:26:00,
2013-07-05 09:31:00,73.0,43.0,26.77,NNW,337,1.0,6.0,34,0.00,,,0.00,Rainwise IP-100,2013-07-05 15:31:00,
2013-07-05 09:36:00,73.0,44.0,26.77,ESE,112,1.0,4.0,35,0.00,,,0.00,Rainwise IP-100,2013-07-05 15:36:00,
2013-07-05 09:41:00,73.0,44.0,26.77,NW,315,4.0,5.0,35,0.00,,,0.00,Rainwise IP-100,2013-07-05 15:41:00,
2013-07-05 09:46:00,73.0,45.0,26.77,NNW,337,3.0,5.0,37,0.00,,,0.00,Rainwise IP-100,2013-07-05 15:46:00,
2013-07-05 09:51:00,73.0,45.0,26.76,ESE,112,1.0,5.0,36,0.00,,,0.00,Rainwise IP-100,2013-07-05 15:51:00,
2013-07-05 09:56:00,74.0,45.0,26.76,NNE,22,2.0,4.0,35,0.00,,,0.00,Rainwise IP-100,2013-07-05 15:56:00,
2013-07-05 10:01:00,74.0,46.0,26.75,West,270,6.0,6.0,36,0.00,,,0.00,Rainwise IP-100,2013-07-05 16:01:00,
2013-07-05 10:06:00,74.0,46.0,26.75,NE,45,1.0,6.0,37,0.00,,,0.00,Rainwise IP-100,2013-07-05 16:06:00,
2013-07-05 10:11:00,75.0,45.0,26.76,West,270,6.0,6.0,34,0.00,,,0.00,Rainwise IP-100,2013-07-05 16:11:00,
2013-07-05 10:16:00,73.0,45.0,26.76,WNW,292,3.0,7.0,37,0.00,,,0.00,Rainwise IP-100,2013-07-05 16:16:00,
2013-07-05 10:21:00,75.0,45.0,26.76,NE,45,1.0,5.0,34,0.00,,,0.00,Rainwise IP-100,2013-07-05 16:21:00,
2013-07-05 10:26:00,75.0,45.0,26.76,NNW,337,1.0,5.0,34,0.00,,,0.00,Rainwise IP-100,2013-07-05 16:26:00,
2013-07-05 10:31:00,76.0,46.0,26.75,NW,315,0.0,6.0,34,0.00,,,0.00,Rainwise IP-100,2013-07-05 16:31:00,
2013-07-05 10:36:00,76.0,45.0,26.75,ESE,112,2.0,6.0,33,0.00,,,0.00,Rainwise IP-100,2013-07-05 16:36:00,
2013-07-05 10:41:00,76.0,45.0,26.75,NNE,22,3.0,7.0,33,0.00,,,0.00,Rainwise IP-100,2013-07-05 16:41:00,
2013-07-05 10:46:00,76.0,44.0,26.75,NNE,22,2.0,6.0,32,0.00,,,0.00,Rainwise IP-100,2013-07-05 16:46:00,
2013-07-05 10:51:00,77.0,45.0,26.75,ENE,67,1.0,5.0,32,0.00,,,0.00,Rainwise IP-100,2013-07-05 16:51:00,
2013-07-05 10:56:00,77.0,44.0,26.75,SSE,157,3.0,4.0,31,0.00,,,0.00,Rainwise IP-100,2013-07-05 16:56:00,
2013-07-05 11:01:00,78.0,44.0,26.74,NW,315,3.0,5.0,30,0.00,,,0.00,Rainwise IP-100,2013-07-05 17:01:00,
2013-07-05 11:06:00,78.0,43.0,26.74,West,270,0.0,6.0,29,0.00,,,0.00,Rainwise IP-100,2013-07-05 17:06:00,
2013-07-05 11:11:00,77.0,42.0,26.73,West,270,2.0,7.0,29,0.00,,,0.00,Rainwise IP-100,2013-07-05 17:11:00,
2013-07-05 11:16:00,78.0,41.0,26.73,NNW,337,0.0,7.0,27,0.00,,,0.00,Rainwise IP-100,2013-07-05 17:16:00,
2013-07-05 11:21:00,79.0,40.0,26.73,NNW,337,1.0,9.0,25,0.00,,,0.00,Rainwise IP-100,2013-07-05 17:21:00,
2013-07-05 11:26:00,78.0,39.0,26.73,NNE,22,1.0,8.0,25,0.00,,,0.00,Rainwise IP-100,2013-07-05 17:26:00,
2013-07-05 11:31:00,78.0,39.0,26.75,NE,45,6.0,9.0,25,0.00,,,0.00,Rainwise IP-100,2013-07-05 17:31:00,
2013-07-05 11:36:00,79.0,41.0,26.75,NNE,22,1.0,8.0,26,0.00,,,0.00,Rainwise IP-100,2013-07-05 17:36:00,
2013-07-05 11:41:00,79.0,40.0,26.72,NNW,337,2.0,6.0,25,0.00,,,0.00,Rainwise IP-100,2013-07-05 17:41:00,
2013-07-05 11:46:00,80.0,39.0,26.72,NNW,337,4.0,8.0,23,0.00,,,0.00,Rainwise IP-100,2013-07-05 17:46:00,
2013-07-05 11:51:00,80.0,39.0,26.71,North,360,5.0,6.0,23,0.00,,,0.00,Rainwise IP-100,2013-07-05 17:51:00,
2013-07-05 11:56:00,80.0,39.0,26.71,West,270,3.0,6.0,23,0.00,,,0.00,Rainwise IP-100,2013-07-05 17:56:00,
2013-07-05 12:01:00,81.0,41.0,26.71,NW,315,0.0,3.0,24,0.00,,,0.00,Rainwise IP-100,2013-07-05 18:01:00,
2013-07-05 12:06:00,81.0,40.0,26.71,North,360,5.0,7.0,23,0.00,,,0.00,Rainwise IP-100,2013-07-05 18:06:00,
2013-07-05 12:11:00,81.0,37.0,26.70,NNW,337,0.0,8.0,21,0.00,,,0.00,Rainwise IP-100,2013-07-05 18:11:00,
2013-07-05 12:16:00,81.0,39.0,26.70,NNW,337,0.0,6.0,22,0.00,,,0.00,Rainwise IP-100,2013-07-05 18:16:00,
2013-07-05 12:21:00,82.0,39.0,26.69,NNW,337,1.0,6.0,22,0.00,,,0.00,Rainwise IP-100,2013-07-05 18:21:00,
2013-07-05 12:26:00,81.0,39.0,26.69,NNW,337,7.0,9.0,22,0.00,,,0.00,Rainwise IP-100,2013-07-05 18:26:00,
2013-07-05 12:31:00,81.0,39.0,26.69,NE,45,0.0,9.0,22,0.00,,,0.00,Rainwise IP-100,2013-07-05 18:31:00,
2013-07-05 12:36:00,81.0,39.0,26.69,NNW,337,3.0,7.0,22,0.00,,,0.00,Rainwise IP-100,2013-07-05 18:36:00,
2013-07-05 12:41:00,80.0,40.0,26.69,NE,45,1.0,6.0,24,0.00,,,0.00,Rainwise IP-100,2013-07-05 18:41:00,
2013-07-05 12:46:00,80.0,38.0,26.69,NE,45,3.0,6.0,22,0.00,,,0.00,Rainwise IP-100,2013-07-05 18:46:00,
2013-07-05 12:51:00,80.0,38.0,26.69,NW,315,6.0,8.0,22,0.00,,,0.00,Rainwise IP-100,2013-07-05 18:51:00,
2013-07-05 12:56:00,80.0,39.0,26.69,NW,315,3.0,9.0,23,0.00,,,0.00,Rainwise IP-100,2013-07-05 18:56:00,
2013-07-05 13:01:00,80.0,39.0,26.69,NNW,337,2.0,9.0,23,0.00,,,0.00,Rainwise IP-100,2013-07-05 19:01:00,
2013-07-05 13:06:00,80.0,39.0,26.69,SSE,157,4.0,7.0,23,0.00,,,0.00,Rainwise IP-100,2013-07-05 19:06:00,
2013-07-05 13:11:00,80.0,39.0,26.69,SSE,157,5.0,9.0,23,0.00,,,0.00,Rainwise IP-100,2013-07-05 19:11:00,
2013-07-05 13:16:00,80.0,39.0,26.69,WSW,247,6.0,9.0,23,0.00,,,0.00,Rainwise IP-100,2013-07-05 19:16:00,
2013-07-05 13:21:00,81.0,41.0,26.69,WNW,292,7.0,9.0,24,0.00,,,0.00,Rainwise IP-100,2013-07-05 19:21:00,
2013-07-05 13:26:00,80.0,40.0,26.69,NNW,337,5.0,12.0,24,0.00,,,0.00,Rainwise IP-100,2013-07-05 19:26:00,
2013-07-05 13:31:00,80.0,40.0,26.68,NE,45,6.0,7.0,24,0.00,,,0.00,Rainwise IP-100,2013-07-05 19:31:00,
2013-07-05 13:36:00,80.0,40.0,26.68,NW,315,3.0,10.0,24,0.00,,,0.00,Rainwise IP-100,2013-07-05 19:36:00,
2013-07-05 13:41:00,81.0,40.0,26.67,SW,225,1.0,6.0,23,0.00,,,0.00,Rainwise IP-100,2013-07-05 19:41:00,
2013-07-05 13:46:00,82.0,39.0,26.67,NW,315,0.0,6.0,22,0.00,,,0.00,Rainwise IP-100,2013-07-05 19:46:00,
2013-07-05 13:51:00,82.0,39.0,26.67,SSE,157,4.0,7.0,22,0.00,,,0.00,Rainwise IP-100,2013-07-05 19:51:00,
2013-07-05 13:56:00,82.0,39.0,26.67,NW,315,6.0,9.0,22,0.00,,,0.00,Rainwise IP-100,2013-07-05 19:56:00,
2013-07-05 14:01:00,82.0,39.0,26.66,NW,315,5.0,8.0,22,0.00,,,0.00,Rainwise IP-100,2013-07-05 20:01:00,
2013-07-05 14:06:00,82.0,40.0,26.66,WNW,292,8.0,11.0,23,0.00,,,0.00,Rainwise IP-100,2013-07-05 20:06:00,
2013-07-05 14:11:00,82.0,40.0,26.69,WNW,292,7.0,13.0,23,0.00,,,0.00,Rainwise IP-100,2013-07-05 20:11:00,
2013-07-05 14:16:00,81.0,39.0,26.69,East,90,2.0,11.0,22,0.00,,,0.00,Rainwise IP-100,2013-07-05 20:16:00,
2013-07-05 14:21:00,82.0,37.0,26.67,NE,45,0.0,7.0,20,0.00,,,0.00,Rainwise IP-100,2013-07-05 20:21:00,
2013-07-05 14:26:00,83.0,41.0,26.67,WSW,247,1.0,6.0,23,0.00,,,0.00,Rainwise IP-100,2013-07-05 20:26:00,
2013-07-05 14:31:00,84.0,40.0,26.64,SSE,157,4.0,5.0,21,0.00,,,0.00,Rainwise IP-100,2013-07-05 20:31:00,
2013-07-05 14:36:00,84.0,39.0,26.64,NE,45,4.0,7.0,20,0.00,,,0.00,Rainwise IP-100,2013-07-05 20:36:00,
2013-07-05 14:41:00,84.0,40.0,26.65,North,360,4.0,9.0,21,0.00,,,0.00,Rainwise IP-100,2013-07-05 20:41:00,
2013-07-05 14:46:00,84.0,39.0,26.65,NNW,337,6.0,10.0,20,0.00,,,0.00,Rainwise IP-100,2013-07-05 20:46:00,
2013-07-05 14:51:00,84.0,40.0,26.64,NE,45,3.0,10.0,21,0.00,,,0.00,Rainwise IP-100,2013-07-05 20:51:00,
2013-07-05 14:56:00,85.0,39.0,26.64,NE,45,0.0,8.0,20,0.00,,,0.00,Rainwise IP-100,2013-07-05 20:56:00,
2013-07-05 15:01:00,84.0,39.0,26.64,NE,45,2.0,11.0,20,0.00,,,0.00,Rainwise IP-100,2013-07-05 21:01:00,
2013-07-05 15:06:00,84.0,39.0,26.64,WNW,292,5.0,6.0,20,0.00,,,0.00,Rainwise IP-100,2013-07-05 21:06:00,
2013-07-05 15:11:00,84.0,39.0,26.63,WSW,247,3.0,10.0,20,0.00,,,0.00,Rainwise IP-100,2013-07-05 21:11:00,
2013-07-05 15:16:00,84.0,40.0,26.63,NNW,337,4.0,9.0,21,0.00,,,0.00,Rainwise IP-100,2013-07-05 21:16:00,
2013-07-05 15:21:00,84.0,41.0,26.64,NNE,22,7.0,11.0,22,0.00,,,0.00,Rainwise IP-100,2013-07-05 21:21:00,
2013-07-05 15:26:00,84.0,40.0,26.64,NE,45,3.0,7.0,21,0.00,,,0.00,Rainwise IP-100,2013-07-05 21:26:00,
2013-07-05 15:31:00,85.0,39.0,26.62,NNW,337,10.0,10.0,20,0.00,,,0.00,Rainwise IP-100,2013-07-05 21:31:00,
2013-07-05 15:36:00,83.0,39.0,26.62,West,270,4.0,10.0,21,0.00,,,0.00,Rainwise IP-100,2013-07-05 21:36:00,
2013-07-05 15:41:00,83.0,38.0,26.63,WNW,292,4.0,8.0,20,0.00,,,0.00,Rainwise IP-100,2013-07-05 21:41:00,
2013-07-05 15:46:00,83.0,38.0,26.63,SSE,157,6.0,10.0,20,0.00,,,0.00,Rainwise IP-100,2013-07-05 21:46:00,
2013-07-05 15:51:00,84.0,39.0,26.61,SW,225,0.0,7.0,20,0.00,,,0.00,Rainwise IP-100,2013-07-05 21:51:00,
2013-07-05 15:56:00,85.0,37.0,26.61,South,180,3.0,7.0,18,0.00,,,0.00,Rainwise IP-100,2013-07-05 21:56:00,
2013-07-05 16:01:00,86.0,38.0,26.61,South,180,5.0,8.0,18,0.00,,,0.00,Rainwise IP-100,2013-07-05 22:01:00,
2013-07-05 16:07:00,86.0,38.0,26.61,North,360,3.0,6.0,18,0.00,,,0.00,Rainwise IP-100,2013-07-05 22:07:00,
2013-07-05 16:12:00,86.0,38.0,26.60,ESE,112,3.0,8.0,18,0.00,,,0.00,Rainwise IP-100,2013-07-05 22:12:00,
2013-07-05 16:17:00,86.0,38.0,26.60,North,360,2.0,7.0,18,0.00,,,0.00,Rainwise IP-100,2013-07-05 22:17:00,
2013-07-05 16:22:00,87.0,38.0,26.58,ENE,67,4.0,7.0,18,0.00,,,0.00,Rainwise IP-100,2013-07-05 22:22:00,
2013-07-05 16:27:00,87.0,38.0,26.58,SE,135,5.0,7.0,18,0.00,,,0.00,Rainwise IP-100,2013-07-05 22:27:00,
2013-07-05 16:32:00,85.0,38.0,26.59,WNW,292,6.0,8.0,19,0.00,,,0.00,Rainwise IP-100,2013-07-05 22:32:00,
2013-07-05 16:37:00,85.0,39.0,26.59,SSE,157,7.0,9.0,20,0.00,,,0.00,Rainwise IP-100,2013-07-05 22:37:00,
2013-07-05 16:42:00,85.0,39.0,26.60,South,180,5.0,10.0,20,0.00,,,0.00,Rainwise IP-100,2013-07-05 22:42:00,
2013-07-05 16:47:00,84.0,40.0,26.60,SE,135,0.0,9.0,21,0.00,,,0.00,Rainwise IP-100,2013-07-05 22:47:00,
2013-07-05 16:52:00,84.0,39.0,26.59,SW,225,4.0,6.0,20,0.00,,,0.00,Rainwise IP-100,2013-07-05 22:52:00,
2013-07-05 16:57:00,85.0,38.0,26.59,South,180,3.0,7.0,19,0.00,,,0.00,Rainwise IP-100,2013-07-05 22:57:00,
2013-07-05 17:02:00,86.0,38.0,26.57,West,270,1.0,7.0,18,0.00,,,0.00,Rainwise IP-100,2013-07-05 23:02:00,
2013-07-05 17:07:00,86.0,40.0,26.57,SW,225,2.0,9.0,20,0.00,,,0.00,Rainwise IP-100,2013-07-05 23:07:00,
2013-07-05 17:12:00,86.0,38.0,26.58,SSW,202,0.0,7.0,18,0.00,,,0.00,Rainwise IP-100,2013-07-05 23:12:00,
2013-07-05 17:17:00,86.0,39.0,26.58,South,180,8.0,8.0,19,0.00,,,0.00,Rainwise IP-100,2013-07-05 23:17:00,
2013-07-05 17:22:00,84.0,39.0,26.58,SSW,202,3.0,10.0,20,0.00,,,0.00,Rainwise IP-100,2013-07-05 23:22:00,
2013-07-05 17:27:00,84.0,40.0,26.58,SW,225,1.0,8.0,21,0.00,,,0.00,Rainwise IP-100,2013-07-05 23:27:00,
2013-07-05 17:32:00,83.0,40.0,26.59,SSW,202,1.0,8.0,22,0.00,,,0.00,Rainwise IP-100,2013-07-05 23:32:00,
2013-07-05 17:37:00,83.0,39.0,26.59,SE,135,7.0,9.0,21,0.00,,,0.00,Rainwise IP-100,2013-07-05 23:37:00,
2013-07-05 17:42:00,83.0,40.0,26.58,WSW,247,1.0,9.0,22,0.00,,,0.00,Rainwise IP-100,2013-07-05 23:42:00,
2013-07-05 17:47:00,82.0,41.0,26.58,SSW,202,6.0,7.0,24,0.00,,,0.00,Rainwise IP-100,2013-07-05 23:47:00,
2013-07-05 17:52:00,81.0,43.0,26.58,South,180,6.0,12.0,26,0.00,,,0.00,Rainwise IP-100,2013-07-05 23:52:00,
2013-07-05 17:57:00,81.0,44.0,26.58,SSW,202,6.0,10.0,27,0.00,,,0.00,Rainwise IP-100,2013-07-05 23:57:00,
2013-07-05 18:02:00,81.0,44.0,26.59,SSW,202,7.0,10.0,27,0.00,,,0.00,Rainwise IP-100,2013-07-06 00:02:00,
2013-07-05 18:07:00,80.0,44.0,26.59,SSE,157,6.0,12.0,28,0.00,,,0.00,Rainwise IP-100,2013-07-06 00:07:00,
2013-07-05 18:12:00,81.0,45.0,26.59,South,180,5.0,10.0,28,0.00,,,0.00,Rainwise IP-100,2013-07-06 00:12:00,
2013-07-05 18:17:00,81.0,44.0,26.59,SE,135,3.0,9.0,27,0.00,,,0.00,Rainwise IP-100,2013-07-06 00:17:00,
2013-07-05 18:22:00,81.0,44.0,26.59,SSE,157,7.0,8.0,27,0.00,,,0.00,Rainwise IP-100,2013-07-06 00:22:00,
2013-07-05 18:27:00,80.0,44.0,26.59,South,180,4.0,7.0,28,0.00,,,0.00,Rainwise IP-100,2013-07-06 00:27:00,
2013-07-05 18:32:00,80.0,45.0,26.59,SSE,157,4.0,7.0,29,0.00,,,0.00,Rainwise IP-100,2013-07-06 00:32:00,
2013-07-05 18:37:00,80.0,45.0,26.59,South,180,3.0,8.0,29,0.00,,,0.00,Rainwise IP-100,2013-07-06 00:37:00,
2013-07-05 18:42:00,79.0,43.0,26.59,SE,135,4.0,9.0,28,0.00,,,0.00,Rainwise IP-100,2013-07-06 00:42:00,
2013-07-05 18:47:00,79.0,43.0,26.59,SSW,202,3.0,9.0,28,0.00,,,0.00,Rainwise IP-100,2013-07-06 00:47:00,
2013-07-05 18:52:00,79.0,43.0,26.60,SSW,202,1.0,8.0,28,0.00,,,0.00,Rainwise IP-100,2013-07-06 00:52:00,
2013-07-05 18:57:00,79.0,44.0,26.60,SSW,202,3.0,8.0,29,0.00,,,0.00,Rainwise IP-100,2013-07-06 00:57:00,
2013-07-05 19:02:00,79.0,43.0,26.60,SW,225,3.0,7.0,28,0.00,,,0.00,Rainwise IP-100,2013-07-06 01:02:00,
2013-07-05 19:07:00,81.0,44.0,26.60,WSW,247,3.0,8.0,27,0.00,,,0.00,Rainwise IP-100,2013-07-06 01:07:00,
2013-07-05 19:12:00,82.0,45.0,26.58,SSE,157,6.0,7.0,27,0.00,,,0.00,Rainwise IP-100,2013-07-06 01:12:00,
2013-07-05 19:17:00,82.0,44.0,26.58,SE,135,3.0,10.0,26,0.00,,,0.00,Rainwise IP-100,2013-07-06 01:17:00,
2013-07-05 19:22:00,82.0,44.0,26.58,SW,225,0.0,5.0,26,0.00,,,0.00,Rainwise IP-100,2013-07-06 01:22:00,
2013-07-05 19:27:00,83.0,42.0,26.58,SE,135,0.0,8.0,24,0.00,,,0.00,Rainwise IP-100,2013-07-06 01:27:00,
2013-07-05 19:32:00,83.0,42.0,26.57,South,180,2.0,6.0,24,0.00,,,0.00,Rainwise IP-100,2013-07-06 01:32:00,
2013-07-05 19:37:00,84.0,43.0,26.57,WSW,247,6.0,9.0,24,0.00,,,0.00,Rainwise IP-100,2013-07-06 01:37:00,
2013-07-05 19:42:00,84.0,43.0,26.58,West,270,3.0,10.0,24,0.00,,,0.00,Rainwise IP-100,2013-07-06 01:42:00,
2013-07-05 19:47:00,84.0,46.0,26.58,WSW,247,0.0,10.0,26,0.00,,,0.00,Rainwise IP-100,2013-07-06 01:47:00,
2013-07-05 19:52:00,84.0,40.0,26.58,WNW,292,5.0,9.0,21,0.00,,,0.00,Rainwise IP-100,2013-07-06 01:52:00,
2013-07-05 19:57:00,82.0,38.0,26.58,NW,315,15.0,15.0,21,0.00,,,0.00,Rainwise IP-100,2013-07-06 01:57:00,
2013-07-05 20:02:00,83.0,38.0,26.60,South,180,2.0,15.0,20,0.00,,,0.00,Rainwise IP-100,2013-07-06 02:02:00,
2013-07-05 20:07:00,82.0,35.0,26.60,WSW,247,5.0,13.0,18,0.00,,,0.00,Rainwise IP-100,2013-07-06 02:07:00,
2013-07-05 20:12:00,82.0,35.0,26.61,West,270,6.0,17.0,18,0.00,,,0.00,Rainwise IP-100,2013-07-06 02:12:00,
2013-07-05 20:17:00,81.0,33.0,26.61,WNW,292,4.0,17.0,18,0.00,,,0.00,Rainwise IP-100,2013-07-06 02:17:00,
2013-07-05 20:22:00,81.0,32.0,26.61,WSW,247,10.0,16.0,17,0.00,,,0.00,Rainwise IP-100,2013-07-06 02:22:00,
2013-07-05 20:27:00,81.0,32.0,26.61,WNW,292,3.0,15.0,17,0.00,,,0.00,Rainwise IP-100,2013-07-06 02:27:00,
2013-07-05 20:32:00,81.0,32.0,26.62,ESE,112,2.0,9.0,17,0.00,,,0.00,Rainwise IP-100,2013-07-06 02:32:00,
2013-07-05 20:37:00,80.0,29.0,26.62,West,270,4.0,11.0,16,0.00,,,0.00,Rainwise IP-100,2013-07-06 02:37:00,
2013-07-05 20:42:00,79.0,29.0,26.63,West,270,3.0,7.0,16,0.00,,,0.00,Rainwise IP-100,2013-07-06 02:42:00,
2013-07-05 20:47:00,79.0,31.0,26.63,WSW,247,2.0,7.0,17,0.00,,,0.00,Rainwise IP-100,2013-07-06 02:47:00,
2013-07-05 20:52:00,78.0,29.0,26.65,WSW,247,9.0,10.0,17,0.00,,,0.00,Rainwise IP-100,2013-07-06 02:52:00,
2013-07-05 20:57:00,77.0,29.0,26.65,SW,225,3.0,11.0,17,0.00,,,0.00,Rainwise IP-100,2013-07-06 02:57:00,
2013-07-05 21:02:00,77.0,31.0,26.65,SW,225,4.0,6.0,18,0.00,,,0.00,Rainwise IP-100,2013-07-06 03:02:00,
2013-07-05 21:07:00,76.0,31.0,26.65,WNW,292,0.0,6.0,19,0.00,,,0.00,Rainwise IP-100,2013-07-06 03:07:00,
2013-07-05 21:12:00,75.0,32.0,26.67,WNW,292,4.0,6.0,20,0.00,,,0.00,Rainwise IP-100,2013-07-06 03:12:00,
2013-07-05 21:17:00,74.0,32.0,26.67,West,270,1.0,6.0,21,0.00,,,0.00,Rainwise IP-100,2013-07-06 03:17:00,
2013-07-05 21:22:00,74.0,33.0,26.67,West,270,3.0,8.0,22,0.00,,,0.00,Rainwise IP-100,2013-07-06 03:22:00,
2013-07-05 21:27:00,74.0,33.0,26.67,West,270,0.0,6.0,22,0.00,,,0.00,Rainwise IP-100,2013-07-06 03:27:00,
2013-07-05 21:32:00,73.0,32.0,26.68,WNW,292,2.0,4.0,22,0.00,,,0.00,Rainwise IP-100,2013-07-06 03:32:00,
2013-07-05 21:37:00,72.0,32.0,26.68,WNW,292,2.0,4.0,23,0.00,,,0.00,Rainwise IP-100,2013-07-06 03:37:00,
2013-07-05 21:42:00,72.0,33.0,26.70,WNW,292,0.0,3.0,24,0.00,,,0.00,Rainwise IP-100,2013-07-06 03:42:00,
2013-07-05 21:47:00,71.0,32.0,26.70,WNW,292,5.0,6.0,24,0.00,,,0.00,Rainwise IP-100,2013-07-06 03:47:00,
2013-07-05 21:52:00,71.0,33.0,26.72,WNW,292,0.0,5.0,25,0.00,,,0.00,Rainwise IP-100,2013-07-06 03:52:00,
2013-07-05 21:57:00,71.0,33.0,26.72,WSW,247,7.0,9.0,25,0.00,,,0.00,Rainwise IP-100,2013-07-06 03:57:00,
2013-07-05 22:01:00,71.0,33.0,26.71,WNW,292,2.0,9.0,25,0.00,,,0.00,Rainwise IP-100,2013-07-06 04:01:00,
2013-07-05 22:06:00,72.0,35.0,26.71,West,270,1.0,6.0,25,0.00,,,0.00,Rainwise IP-100,2013-07-06 04:06:00,
2013-07-05 22:11:00,71.0,33.0,26.71,West,270,0.0,2.0,25,0.00,,,0.00,Rainwise IP-100,2013-07-06 04:11:00,
2013-07-05 22:16:00,71.0,36.0,26.71,SW,225,0.0,1.0,27,0.00,,,0.00,Rainwise IP-100,2013-07-06 04:16:00,
2013-07-05 22:21:00,70.0,35.0,26.73,NNW,337,4.0,6.0,27,0.00,,,0.00,Rainwise IP-100,2013-07-06 04:21:00,
2013-07-05 22:26:00,71.0,36.0,26.73,West,270,4.0,7.0,27,0.00,,,0.00,Rainwise IP-100,2013-07-06 04:26:00,
2013-07-05 22:31:00,71.0,36.0,26.72,West,270,0.0,7.0,27,0.00,,,0.00,Rainwise IP-100,2013-07-06 04:31:00,
2013-07-05 22:36:00,71.0,36.0,26.72,West,270,4.0,6.0,27,0.00,,,0.00,Rainwise IP-100,2013-07-06 04:36:00,
2013-07-05 22:41:00,71.0,36.0,26.73,NW,315,2.0,5.0,27,0.00,,,0.00,Rainwise IP-100,2013-07-06 04:41:00,
2013-07-05 22:46:00,70.0,36.0,26.73,WNW,292,0.0,4.0,28,0.00,,,0.00,Rainwise IP-100,2013-07-06 04:46:00,
2013-07-05 22:51:00,69.0,36.0,26.73,WNW,292,0.0,1.0,29,0.00,,,0.00,Rainwise IP-100,2013-07-06 04:51:00,
2013-07-05 22:56:00,69.0,36.0,26.73,WNW,292,0.0,0.0,29,0.00,,,0.00,Rainwise IP-100,2013-07-06 04:56:00,
2013-07-05 23:01:00,68.0,36.0,26.75,WNW,292,0.0,0.0,31,0.00,,,0.00,Rainwise IP-100,2013-07-06 05:01:00,
2013-07-05 23:06:00,67.0,36.0,26.75,WNW,292,0.0,3.0,32,0.00,,,0.00,Rainwise IP-100,2013-07-06 05:06:00,
2013-07-05 23:11:00,67.0,37.0,26.76,NNE,22,0.0,1.0,33,0.00,,,0.00,Rainwise IP-100,2013-07-06 05:11:00,
2013-07-05 23:16:00,67.0,38.0,26.76,NNE,22,3.0,3.0,34,0.00,,,0.00,Rainwise IP-100,2013-07-06 05:16:00,
2013-07-05 23:21:00,67.0,38.0,26.76,NNE,22,1.0,5.0,34,0.00,,,0.00,Rainwise IP-100,2013-07-06 05:21:00,
2013-07-05 23:26:00,66.0,37.0,26.76,NNE,22,0.0,2.0,35,0.00,,,0.00,Rainwise IP-100,2013-07-06 05:26:00,
2013-07-05 23:31:00,66.0,37.0,26.77,NNE,22,0.0,0.0,35,0.00,,,0.00,Rainwise IP-100,2013-07-06 05:31:00,
2013-07-05 23:36:00,65.0,37.0,26.77,NNE,22,0.0,0.0,36,0.00,,,0.00,Rainwise IP-100,2013-07-06 05:36:00,
2013-07-05 23:37:00,65.0,37.0,26.77,NNE,22,0.0,0.0,36,0.00,,,0.00,Rainwise IP-100,2013-07-06 05:37:00,
2013-07-05 23:42:00,64.0,38.0,26.78,SSE,157,0.0,4.0,38,0.00,,,0.00,Rainwise IP-100,2013-07-06 05:42:00,
2013-07-05 23:46:00,64.0,38.0,26.78,SSE,157,0.0,3.0,39,0.00,,,0.00,Rainwise IP-100,2013-07-06 05:46:00,
2013-07-05 23:51:00,64.0,38.0,26.79,SSE,157,0.0,0.0,39,0.00,,,0.00,Rainwise IP-100,2013-07-06 05:51:00,
2013-07-05 23:56:00,63.0,38.0,26.79,SSE,157,0.0,1.0,39,0.00,,,0.00,Rainwise IP-100,2013-07-06 05:56:00,